Location: Newark
(25.6108°S, 54.5803°W)
Time: 13:17:18
(UTC+00:00)

Courier 1B - Visible Passes

Search period start: 30 October 2020 00:00
Search period end: 09 November 2020 00:00
Orbit: 963 x 1209 km, 28.3° (Epoch: 29 October)

Date Brightness Start Highest point End Pass type
(mag) Time Alt. Az. Time Alt. Az. Time Alt. Az.
30 Oct 9.8 01:12:29 10° WNW 01:13:41 16° WNW 01:13:41 16° WNW visible
30 Oct 9.5 05:14:31 24° E 05:14:31 24° E 05:17:17 10° E visible
30 Oct 8.0 07:01:27 42° WNW 07:03:50 56° NNW 07:11:17 10° NE visible
30 Oct 8.8 22:26:53 10° NNW 22:32:15 23° NNE 22:37:14 12° ENE visible
31 Oct 8.2 00:18:50 10° WNW 00:24:12 49° NNW 00:24:12 49° NNW visible
31 Oct 8.2 06:11:39 54° NE 06:11:39 54° NE 06:17:36 10° ENE visible
31 Oct 8.8 07:58:36 14° W 08:03:53 28° NNW 08:10:06 10° NNE visible
31 Oct 7.9 23:25:21 10° NW 23:32:10 50° NNE 23:34:37 37° ENE visible
01 Nov 9.4 01:18:58 10° W 01:21:34 24° W 01:21:34 24° W visible
01 Nov 9.7 05:21:58 18° ENE 05:21:58 18° ENE 05:23:45 10° ENE visible
01 Nov 8.4 07:08:56 35° NW 07:10:03 37° NNW 07:16:58 10° NE visible
01 Nov 8.3 22:32:04 10° NW 22:38:24 38° NNE 22:44:55 11° E visible
02 Nov 7.7 00:25:10 10° WNW 00:31:52 78° NW 00:31:52 78° NW visible
02 Nov 8.9 06:19:23 32° NNE 06:19:23 32° NNE 06:23:33 10° NE visible
02 Nov 9.3 08:06:21 12° WNW 08:10:00 16° NNW 08:14:20 10° N visible
02 Nov 7.7 23:31:29 10° WNW 23:38:30 72° NNE 23:42:02 34° E visible
03 Nov 9.2 01:25:36 10° W 01:28:58 30° W 01:28:58 30° W visible
03 Nov 10.2 05:29:54 10° NE 05:29:54 10° NE 05:29:55 10° NE visible
03 Nov 9.0 07:16:52 22° NNW 07:16:52 22° NNW 07:21:54 10° NNE visible
03 Nov 7.8 22:37:56 10° NW 22:44:41 59° NNE 22:51:54 10° E visible
04 Nov 7.7 00:31:45 10° W 00:38:57 79° S 00:38:59 79° S visible
04 Nov 9.6 06:27:25 16° NNE 06:27:25 16° NNE 06:28:56 10° NNE visible
04 Nov 7.7 23:37:58 10° WNW 23:44:59 87° SSW 23:48:53 31° ESE visible
05 Nov 9.1 01:32:17 10° W 01:35:48 31° WSW 01:35:48 31° WSW visible
05 Nov 9.7 07:24:55 10° NNW 07:24:55 10° NNW 07:24:59 10° NNW visible
05 Nov 7.7 22:44:14 10° WNW 22:51:05 82° NNE 22:58:26 10° ESE visible
06 Nov 7.8 00:38:26 10° W 00:45:34 72° S 00:45:34 72° S visible
06 Nov 7.8 23:44:37 10° W 23:51:34 74° S 23:55:15 32° ESE visible
07 Nov 9.2 01:38:55 10° WSW 01:42:09 30° WSW 01:42:09 30° WSW visible
07 Nov 7.8 22:50:50 10° W 22:57:39 80° S 23:04:52 10° ESE visible
08 Nov 7.8 00:45:06 10° W 00:51:45 71° SSW 00:51:45 71° SSW visible
